EET,Max TemperatureF,Mean TemperatureF,Min TemperatureF,Max Dew PointF,MeanDew PointF,Min DewpointF,Max Humidity, Mean Humidity, Min Humidity, Max Sea Level PressureIn, Mean Sea Level PressureIn, Min Sea Level PressureIn, Max VisibilityMiles, Mean VisibilityMiles, Min VisibilityMiles, Max Wind SpeedMPH, Mean Wind SpeedMPH, Max Gust SpeedMPH,PrecipitationIn, CloudCover, Events, WindDirDegrees
2012-11-1,57,47,37,43,38,34,100,78,48,30.27,30.23,30.18,6.2,6.2,6.2,17,4,,0.00,5,Rain,230
2012-11-2,60,46,32,37,32,27,100,70,27,30.21,30.19,30.15,6.2,6.2,6.2,7,4,,0.00,3,,263
2012-11-3,59,46,32,39,35,30,100,73,36,30.24,30.20,30.15,6.2,6.2,6.2,8,2,,0.00,2,,311
2012-11-4,53,42,32,41,37,32,100,83,58,30.27,30.24,30.21,6.2,6.2,6.2,8,3,,0.00,5,,11
2012-11-5,55,44,32,41,33,28,100,76,36,30.24,30.22,30.18,6.2,6.2,6.2,9,2,,0.00,3,,298
2012-11-6,60,46,32,36,31,27,100,67,27,30.21,30.15,30.09,6.2,6.2,6.2,9,3,,0.00,3,,249
2012-11-7,62,47,32,36,32,27,93,61,30,30.18,30.12,30.06,6.2,6.2,6.2,15,6,,0.00,3,,247
2012-11-8,57,50,41,37,35,34,76,60,44,30.09,30.07,30.06,6.2,6.2,6.2,20,12,,0.00,4,,226
2012-11-9,53,43,33,43,38,32,93,76,54,30.12,30.07,30.01,6.2,6.2,6.2,10,2,,0.00,5,Rain,338
2012-11-10,50,44,39,43,41,36,100,89,66,30.09,30.04,30.01,6.2,6.2,6.2,14,3,,0.00,5,Rain,74
2012-11-11,51,45,39,43,41,39,100,89,67,30.21,30.15,30.09,6.2,5.7,1.2,12,4,,0.00,5,Rain,46
2012-11-12,46,42,39,43,38,32,93,84,71,30.24,30.22,30.18,6.2,6.2,6.2,16,12,,0.00,5,,58
2012-11-13,44,38,32,34,32,30,100,76,61,30.27,30.20,30.12,6.2,6.2,6.2,16,9,,0.00,5,,64
2012-11-14,51,42,33,36,32,30,100,76,44,30.15,30.09,30.04,6.2,6.2,6.2,21,5,28,0.00,3,,4
2012-11-15,50,39,28,32,29,25,100,73,43,30.30,30.25,30.18,6.2,6.2,6.2,9,3,,0.00,2,,26
2012-11-16,50,36,23,34,28,21,100,83,47,30.36,30.32,30.30,3.1,3.1,3.1,7,1,,0.00,,,13
2012-11-17,48,34,21,34,29,21,100,88,57,30.36,30.32,30.27,6.2,2.4,0.3,7,1,,0.00,2,Fog,1
2012-11-18,48,34,19,34,27,19,100,83,54,30.30,30.26,30.21,6.2,4.5,3.1,7,1,,0.00,1,,337
2012-11-19,41,30,19,34,26,18,100,91,65,30.27,30.25,30.21,6.2,5.2,0.1,13,3,,0.00,5,Fog,54
2012-11-20,42,32,23,36,30,21,100,84,61,30.27,30.25,30.21,6.2,6.0,4.3,8,3,,0.00,5,,47
2012-11-21,41,37,33,36,33,30,100,86,70,30.24,30.21,30.18,6.2,6.2,6.2,14,6,,0.00,6,Rain,30
2012-11-22,41,37,33,36,33,28,100,89,61,30.24,30.21,30.18,6.2,5.6,0.6,9,5,,0.00,6,Fog,36
2012-11-23,42,35,28,34,30,27,93,81,57,30.27,30.22,30.18,6.2,6.2,6.2,12,7,,0.00,6,,69
2012-11-24,37,32,26,32,30,27,100,89,75,30.18,30.13,30.09,6.2,5.3,1.6,6,3,,0.00,5,,20
2012-11-25,42,33,24,32,29,25,100,85,53,30.12,30.09,30.06,6.2,5.3,1.9,8,1,,0.00,6,,46
2012-11-26,42,33,23,32,27,19,100,79,53,30.12,30.09,30.06,6.2,6.2,6.2,9,3,,0.00,5,,67
2012-11-27,44,30,17,25,20,16,100,74,39,30.18,30.13,30.09,6.2,6.2,6.2,10,3,,0.00,3,,315
2012-11-28,46,32,17,23,19,14,93,70,34,30.24,30.21,30.18,,,,10,2,,0.00,,,43
2012-11-29,46,30,14,25,19,12,100,75,34,30.24,30.20,30.15,6.2,6.2,6.2,6,1,,0.00,3,,331
2012-11-30,46,32,17,25,19,16,100,75,32,30.30,30.23,30.18,6.2,5.8,3.7,12,2,,0.00,4,,36